User: anonymous
Location: Unspecified
(0.0000°N, 0.0000°E)
Time: 09:48:35
(UTC+00:00)
Language:

Landsat 7 - Orbit

View from above orbital plane
View from above orbital plane
View from above satellite
View from above satellite

Ground track
Ground track

The orbit data is extracted from the following two-line orbital elements,

1 25682U 99020A   14261.75331058  .00000329  00000-0  83177-4 0  6147
2 25682 098.2296 330.1092 0000898 093.7468 266.3810 14.57100883820611
Epoch (UTC): 18 September 2014 18:04:46
Eccentricity: 0.0000898
inclination: 98.2296°
perigee height: 702 km
apogee height: 703 km
right ascension of ascending node: 330.1092°
argument of perigee: 93.7468°
revolutions per day: 14.57100883
mean anomaly at epoch: 266.3810°
orbit number at epoch: 82061

The dashed part of the orbit path shows where the satellite is in the earth's shadow,  

DLR